EUTELSAT 25B (39233 NORAD) Tracking and Keplerian Element Data

This shows tracking and keplerian element data for the satellite.

Feedback or suggestion? Click here.




ElementValue
Catalog39233
NameEUTELSAT 25B
Epoch Orbit1951
Epoch Day19.59942129
Epoch Year2019
RAAN30.2895
Inclination0.0456
Eccentricity0.0002071
Argument of Perigee272.1286
Mean Anonmoly57.5482
Mean Motion1.00272944
Decay Rate1.45E-06
L11 39233U 13044A 19019.59942129 .00000145 00000-0 00000-0 0 9993
L22 39233 0.0456 30.2895 0002071 272.1286 57.5482 1.00272944 19518

Live tracking and technical data element details for EUTELSAT 25B (NORAD 39233). EUTELSAT 25B can be tracked NOW for your location showing map with azimuth and elevation plus other details from your city location.

Track the satellite on the map from your city or location and see movement details for azimuth, elevation, latitude, longitude, range, height, and movement on the map or in text.







IsCatalogInMostPopularTable: catalog: 39233, numindb: 676
Update: records affected: 1



GetName: 39233 EUTELSAT 25B

Hit Count: updated at: Tue, 22 Jan 2019 09:57:08 GMT